+ View the NASA Portal
+ Center for Near-Earth Object Studies
IMPORTANT:
The SSD Announcement email list is now available. Major changes are coming in the near future, including possible hostname and/or URL changes. To be notified of such changes, subscribe to this email list.
Please visit
this page
for more details.
Don't show this message again
JPL Small-Body Database Browser
Search:
[
help
]
48711 (1996 ND5)
Classification:
Main-belt Asteroid
SPK-ID:
2048711
[
Ephemeris
|
Orbit Diagram
|
Orbital Elements
|
Mission Design
|
Physical Parameters
|
Discovery Circumstances
|
Close-Approach Data
]
[ show orbit diagram ]
Orbital Elements at Epoch 2458600.5 (2019-Apr-27.0) TDB
Reference:
JPL 25
(heliocentric ecliptic J2000)
Element
Value
Uncertainty (1-sigma)
Units
e
.1728920152126459
3.5433e-08
a
3.171237262177093
2.0796e-08
au
q
2.622955661201861
1.0761e-07
au
i
.4657651013769146
3.8668e-06
deg
node
302.5063448275902
0.00065356
deg
peri
349.1840381823382
0.00065375
deg
M
34.3566424217946
1.6882e-05
deg
t
p
2458403.643506638363
(2018-Oct-12.14350664)
9.6121e-05
TDB
period
2062.725942196059
5.65
2.029e-05
5.555e-08
d
yr
n
.1745263355813181
1.7168e-09
deg/d
Q
3.719518863152324
2.4392e-08
au
Orbit Determination Parameters
# obs. used (total)
1104
data-arc span
10267 days (28.11 yr)
first obs. used
1991-10-04
last obs. used
2019-11-13
planetary ephem.
DE431
SB-pert. ephem.
SB431-N16
condition code
0
norm. resid. RMS
.53141
source
ORB
producer
Otto Matic
solution date
2019-Dec-04 03:37:15
Additional Information
Earth MOID
= 1.60607 au
Jupiter MOID
= 1.47109 au
T_jup
= 3.179
[ hide covariance matrix ]
Orbital Elements at Epoch 2456788.5 (2014-May-11.0) TDB
Reference:
JPL 25
(heliocentric ecliptic J2000)
Element
Value
Uncertainty (1-sigma)
Units
e
.1766697460095212
3.5353e-08
q
2.608329011056058
1.0779e-07
au
t
p
2456344.937556895563
(2013-Feb-21.43755690)
9.0673e-05
TDB
node
303.3165835566549
0.00064799
deg
peri
348.9644952247832
0.00064817
deg
i
.4687570519226223
3.8897e-06
deg
Orbit Determination Parameters
# obs. used (total)
1104
data-arc span
10267 days (28.11 yr)
first obs. used
1991-10-04
last obs. used
2019-11-13
planetary ephem.
DE431
SB-pert. ephem.
SB431-N16
condition code
0
norm. resid. RMS
.53141
source
ORB
producer
Otto Matic
solution date
2019-Dec-04 03:37:15
Additional Information
Jupiter MOID
= 1.47109 au
T_jup
= 3.179
Orbit Covariance (6×6)
e
q
tp
node
peri
i
e
1.249838523562574E-15
-3.768775154224618E-15
7.365971813685225E-13
1.240496304772334E-14
9.185662638086101E-14
-6.381717789560525E-17
q
-3.768775154224618E-15
1.161916026150964E-14
-2.254228175276146E-12
-4.552557744596878E-14
-2.630503705960415E-13
2.475070022077248E-16
tp
7.365971813685225E-13
-2.254228175276146E-12
8.221522300707139E-9
-1.297753213147896E-11
1.438945188294607E-9
-1.65059462970482E-13
node
1.240496304772334E-14
-4.552557744596878E-14
-1.297753213147896E-11
4.198887988511491E-7
-4.198759012768089E-7
6.507952477437822E-10
peri
9.185662638086101E-14
-2.630503705960415E-13
1.438945188294607E-9
-4.198759012768089E-7
4.201209415793916E-7
-6.508071585036899E-10
i
-6.381717789560525E-17
2.475070022077248E-16
-1.65059462970482E-13
6.507952477437822E-10
-6.508071585036899E-10
1.512997039733432E-11
[
Ephemeris
|
Orbit Diagram
|
Orbital Elements
|
Mission Design
|
Physical Parameters
|
Discovery Circumstances
|
Close-Approach Data
]
Physical Parameter Table
Parameter
Symbol
Value
Units
Sigma
Reference
Notes
absolute magnitude
H
14.2
n/a
MPO319665
diameter
diameter
7.866
km
0.333
urn:nasa:pds:neowise_diameters_albedos::2.0[mainbelt] (http://adsabs.harvard.edu/abs/2011ApJ...741...68M)
geometric albedo
albedo
0.060
0.007
urn:nasa:pds:neowise_diameters_albedos::2.0[mainbelt] (http://adsabs.harvard.edu/abs/2011ApJ...741...68M)
48711 (1996 ND5)
Discovered 1996-Jul-14 by Elst, E. W. at La Silla
Reference:
20021120/Numbers.arc
Last Updated:
2004-04-19
[ show close-approach data ]
Alternate Designations
1996 ND5
= 2000 DZ64
[
Ephemeris
|
Orbit Diagram
|
Orbital Elements
|
Mission Design
|
Physical Parameters
|
Discovery Circumstances
|
Close-Approach Data
]
2019-Dec-05 16:08 UT
(server date/time)
Site Manager:
Ryan S. Park
Webmaster
:
Alan B. Chamberlin